Regional Weather Roundup
Issued by NWS Midland/Odessa, TX

Home | Current Version | Previous Version | Text Only | Print | Product List | Glossary On
Versions: 1 2 3 4 5 6 7 8 9 10 11 12 13 14 15 16 17 18 19 20 21 22 23 24 25 26 27 28 29 30 31 32 33 34 35 36 37 38 39 40 41 42 43 44 45 46 47 48 49 50
000
ASUS44 KMAF 161610
RWRMAF
MIDLAND AREA WEATHER ROUNDUP
NATIONAL WEATHER SERVICE MIDLAND TX
1100 AM CDT WED APR 16 2014

...IN SOUTHWEST TEXAS AND SOUTHEAST NEW MEXICO...

CITY           SKY/WX    TMP DP  RH WIND       PRES   REMARKS
ALPINE         MOSUNNY   72  22  15 SW13G18   30.00S
ANDREWS        FAIR      60  17  19 S14       29.90R
ARTESIA        SUNNY     59  16  18 SE10      29.87R
BIG SPRING     MOSUNNY   61  21  21 S24G31    29.93S
CARLSBAD       SUNNY     59  13  16 VRB6      29.86S
DRYDEN           N/A     59  20  22 E9        29.98R
FORT STOCKTON  SUNNY     69  17  13 SE12      29.89S
GUAD PASS      SUNNY     60  15  17 SW16      29.97S
HOBBS          SUNNY     57  16  19 S9        29.90S
MARFA          MOSUNNY   63  18  17 S9        30.01S
MIDLAND AIRPK  MOSUNNY   63  18  18 S18       29.91S
MIDLAND INTL   MOSUNNY   62  20  19 S17       29.91R
ODESSA         SUNNY     62  16  16 S15       29.90S
PECOS          SUNNY     62  18  18 E6        29.88S
PRESIDIO       FAIR      65  15  14 CALM      29.94S
SEMINOLE       PTSUNNY   60  16  18 S12       29.90S
SNYDER         PTSUNNY   57  16  20 S22       29.94S
WINK           SUNNY     61  16  17 SE12      29.88R
$$
...OTHER STATIONS IN TEXAS...

CITY           SKY/WX    TMP DP  RH WIND       PRES   REMARKS
ABILENE        SUNNY     58  22  24 S25G35    29.97R
AMARILLO       MOSUNNY   61  11  14 SW16      29.82S
AUSTIN         PTSUNNY   62  42  47 S18G25    30.12F
BROWNSVILLE    PTSUNNY   71  51  49 SE15G24   30.10R
CORPUS CHRISTI MOSUNNY   69  46  43 SE15G23   30.12F
DALLAS FTW     PTSUNNY   59  33  37 S23G36    30.09F
DEL RIO        SUNNY     59  32  36 SE18G28   30.04S
EL PASO        MOSUNNY   63  16  16 S9        29.89S
HOUSTON INT    PTSUNNY   59  41  51 E13G23    30.20S
LUBBOCK        MOSUNNY   57  16  20 S15G26    29.87S
SAN ANGELO     SUNNY     60  23  24 S16G26    29.99S
SAN ANTONIO    PTSUNNY   61  42  49 S20       30.11F
WACO           MOSUNNY   58  36  43 S20       30.13S
WICHITA FALLS  NOT AVBL
$$
...OTHER LOCATIONS IN NEW MEXICO...

CITY           SKY/WX    TMP DP  RH WIND       PRES   REMARKS
ALAMAGORDO     SUNNY     61   7  11 NW5       29.93R
ALBUQUERQUE    SUNNY     58  10  15 SW7       29.93R
CANNON AFB     SUNNY     65   8  10 W18G25    29.85R
CLOVIS         SUNNY     66  16  14 W22G28    29.86S
HOLLOMAN AFB   SUNNY     60   9  13 CALM      29.92R
ROSWELL        SUNNY     62  13  14 SE8       29.86S
RUIDOSO        SUNNY     57   7  13 NW5       30.01S
SANTA FE       SUNNY     54   8  16 W9        29.92S
TRUTH OR CONSE SUNNY     63  10  12 VRB7      29.91S
TUCUMCARI      PTSUNNY   64  13  13 W14       29.81R
$$



USA.gov is the U.S. government's official web portal to all federal, state and local government web resources and services.